Home > Weather > Hudson > Past weeks

Flag for U.S.A. Weather for the Past 2 Weeks in Hudson, Wisconsin, U.S.A.

Now
5 °F

Sunny.


Feels Like: -2 °F
Forecast: -13 / 8 °F
Wind: 3 mph from East

Location: St. Paul Downtown Holman Field

Current Time: Feb 13, 2016 at 12:22:55 PM

Latest Report: Feb 13, 2016 at 11:53 AM


Visibility: 10 mi

Pressure: 30.68 "Hg

Humidity: 54%

Dew point: -8 °F

Location of HudsonLocation

Historic Weather in Hudson — Graph

°F

Hudson Temperature Yesterday

Maximum temperature yesterday: 15 °F (at 12:53 AM)
Minimum temperature yesterday: 1 °F (at 11:53 PM)
Average temperature yesterday: 9 °F

High & Low Weather Summary for the Past Weeks

 TemperatureHumidityPressure
High41 °F (Jan 30, 1:53 PM)96% (Jan 31, 12:53 AM)30.72 "Hg (Jan 31, 12:53 AM)
Low-6 °F (Feb 13, 5:53 AM)41% (Feb 12, 12:53 PM)29.52 "Hg (Jan 30, 3:53 PM)
Average21 °F74%30.04 "Hg
* Reported Jan 29 10:53 AM — Feb 13 10:53 AM, Hudson, Weather by CustomWeather, © 2016

Note: Actual official high and low records may vary slightly from our data, if they occured in-between our weather recording intervals... More about our weather records

Advertising

Hudson Weather History for the Previous 24 Hours

 ConditionsComfort  
Time TempWeatherWind HumidityBarometerVisibility
10:53 AM
Sat, Feb 13
3 °FSunny.5 mphN/A30.70 "Hg10 mi
9:53 AM0 °FSunny.No windN/A30.71 "Hg10 mi
8:53 AM-2 °FSunny.No wind62%30.72 "Hg10 mi
7:53 AM-5 °FSunny.3 mph68%30.72 "Hg10 mi
6:53 AM-6 °FClear.5 mph67%30.71 "Hg10 mi
5:53 AM-6 °FClear.6 mph67%30.71 "Hg10 mi
4:53 AM-5 °FClear.6 mph68%30.71 "Hg10 mi
3:53 AM-4 °FClear.8 mph65%30.72 "Hg10 mi
2:53 AM-3 °FClear.9 mph61%30.72 "Hg10 mi
1:53 AM-2 °FClear.12 mph62%30.71 "Hg10 mi
12:53 AM0 °FClear.12 mph57%30.70 "Hg10 mi
11:53 PM
Fri, Feb 12
1 °FClear.12 mph54%30.68 "Hg10 mi
10:53 PM2 °FClear.12 mphN/A30.66 "Hg10 mi
9:53 PM4 °FClear.15 mphN/A30.65 "Hg10 mi
8:53 PM5 °FClear.12 mph47%30.63 "Hg10 mi
7:53 PM5 °FClear.15 mphN/A30.63 "Hg10 mi
6:53 PM6 °FClear.14 mph45%30.60 "Hg10 mi
5:53 PM7 °FClear.18 mph43%30.60 "Hg10 mi
4:53 PM9 °FSunny.21 mphN/A30.57 "Hg10 mi
3:53 PM10 °FSunny.16 mphN/A30.54 "Hg10 mi
2:53 PM10 °FSunny.18 mph41%30.52 "Hg10 mi
1:53 PM10 °FSunny.18 mph43%30.51 "Hg10 mi
12:53 PM10 °FSunny.17 mph41%30.49 "Hg10 mi
Weather by CustomWeather, © 2016

See weather overviewHow to use our weather pages